| time (UTC) | temp C | wind direction | speed KPH | gust KPH | rain 1hr cm | rain 24hr cm | rain mn cm | humidity % | barometer mb |
| 20260507080007 | 12 | 171 | 0.0 | 0.0 | 0.00 | 0.53 | 0.00 | 96 | 1005.4 |
| 20260507074508 | 12 | 144 | 0.0 | 0.0 | 0.00 | 0.53 | 0.00 | 96 | 1005.3 |
| 20260507073009 | 12 | 144 | 0.0 | 0.0 | 0.00 | 0.53 | 0.00 | 96 | 1005.7 |
| 20260507071511 | 12 | 150 | 0.0 | 0.0 | 0.00 | 0.53 | 0.00 | 96 | 1005.5 |
| 20260507070003 | 12 | 186 | 0.0 | 0.0 | 0.00 | 0.53 | 0.00 | 96 | 1005.7 |
| 20260507064510 | 12 | 165 | 0.0 | 0.0 | 0.00 | 0.53 | 0.00 | 96 | 1005.6 |
| 20260507063006 | 12 | 176 | 0.0 | 0.0 | 0.00 | 0.53 | 0.00 | 96 | 1005.6 |
| 20260507061526 | 12 | 158 | 0.0 | 0.0 | 0.00 | 0.53 | 0.00 | 96 | 1006.0 |
| 20260507060021 | 12 | 222 | 0.0 | 0.0 | 0.00 | 0.53 | 0.00 | 96 | 1005.9 |
| 20260507054503 | 12 | 201 | 0.0 | 0.0 | 0.00 | 0.53 | 0.00 | 96 | 1006.2 |
| 20260507053006 | 12 | 179 | 0.0 | 0.0 | 0.00 | 0.53 | 0.00 | 96 | 1006.3 |
| 20260507051508 | 12 | 236 | 0.0 | 0.0 | 0.00 | 0.53 | 0.00 | 96 | 1006.5 |
| 20260507050027 | 12 | 184 | 0.0 | 0.0 | 0.00 | 0.53 | 0.00 | 96 | 1006.5 |
| 20260507044534 | 12 | 210 | 0.0 | 1.6 | 0.00 | 0.53 | 0.00 | 96 | 1006.4 |
| 20260507043020 | 12 | 217 | 0.0 | 4.8 | 0.00 | 0.53 | 0.00 | 96 | 1006.6 |
| 20260507041507 | 12 | 205 | 1.6 | 8.0 | 0.00 | 0.53 | 0.00 | 96 | 1006.4 |
| 20260507040011 | 12 | 184 | 0.0 | 4.8 | 0.00 | 0.53 | 0.00 | 96 | 1006.6 |
| 20260507034514 | 12 | 145 | 1.6 | 6.4 | 0.00 | 0.53 | 0.53 | 96 | 1006.7 |
| 20260507033020 | 12 | 101 | 1.6 | 12.9 | 0.00 | 0.53 | 0.53 | 96 | 1006.8 |
| 20260507031523 | 12 | 198 | 1.6 | 8.0 | 0.00 | 0.53 | 0.53 | 96 | 1006.5 |
| 20260507030011 | 12 | 210 | 0.0 | 8.0 | 0.00 | 0.53 | 0.53 | 96 | 1006.2 |
| 20260507024514 | 12 | 201 | 0.0 | 6.4 | 0.00 | 0.53 | 0.53 | 96 | 1006.1 |
| 20260507023017 | 12 | 192 | 1.6 | 9.7 | 0.00 | 0.53 | 0.53 | 96 | 1006.7 |
| 20260507021520 | 12 | 112 | 0.0 | 9.7 | 0.00 | 0.53 | 0.53 | 96 | 1006.9 |
| 20260507020024 | 12 | 243 | 0.0 | 4.8 | 0.00 | 0.53 | 0.53 | 96 | 1007.1 |
| 20260507014509 | 13 | 146 | 1.6 | 8.0 | 0.00 | 0.53 | 0.53 | 96 | 1007.2 |
| 20260507013017 | 13 | 218 | 1.6 | 8.0 | 0.00 | 0.53 | 0.53 | 95 | 1007.3 |
| 20260507011528 | 13 | 156 | 1.6 | 9.7 | 0.03 | 0.53 | 0.53 | 95 | 1007.4 |
| 20260507010023 | 13 | 290 | 1.6 | 11.3 | 0.08 | 0.53 | 0.53 | 96 | 1007.4 |
| 20260507004523 | 13 | 97 | 3.2 | 9.7 | 0.15 | 0.53 | 0.53 | 95 | 1007.4 |
| 20260507003012 | 13 | 200 | 1.6 | 11.3 | 0.41 | 0.53 | 0.53 | 95 | 1007.6 |
| 20260507001518 | 13 | 196 | 1.6 | 12.9 | 0.43 | 0.51 | 0.51 | 95 | 1007.5 |
| 20260507000026 | 13 | 243 | 1.6 | 12.9 | 0.41 | 0.46 | 0.46 | 95 | 1007.5 |
| 20260506234525 | 13 | 248 | 1.6 | 8.0 | 0.36 | 0.38 | 0.38 | 95 | 1007.5 |
| 20260506233026 | 13 | 89 | 3.2 | 16.1 | 0.13 | 0.13 | 0.13 | 94 | 1007.5 |
| 20260506231516 | 13 | 192 | 1.6 | 20.9 | 0.08 | 0.08 | 0.08 | 94 | 1007.6 |
| 20260506230020 | 13 | 201 | 4.8 | 12.9 | 0.05 | 0.05 | 0.05 | 92 | 1007.7 |
| 20260506224524 | 13 | 134 | 3.2 | 11.3 | 0.03 | 0.03 | 0.03 | 91 | 1007.8 |
| 20260506223026 | 14 | 123 | 4.8 | 17.7 | 0.00 | 0.00 | 0.00 | 88 | 1007.8 |
| 20260506221530 | 15 | 113 | 4.8 | 22.5 | 0.00 | 0.00 | 0.00 | 86 | 1008.0 |
| 20260506220019 | 15 | 238 | 3.2 | 17.7 | 0.00 | 0.00 | 0.00 | 86 | 1007.8 |
| 20260506214520 | 15 | 174 | 1.6 | 12.9 | 0.00 | 0.00 | 0.00 | 87 | 1007.8 |
| 20260506213023 | 14 | 167 | 1.6 | 12.9 | 0.00 | 0.00 | 0.00 | 88 | 1008.1 |
| 20260506211525 | 15 | 235 | 0.0 | 9.7 | 0.00 | 0.00 | 0.00 | 86 | 1008.4 |
| 20260506210028 | 16 | 176 | 3.2 | 8.0 | 0.00 | 0.00 | 0.00 | 82 | 1008.4 |
| 20260506204523 | 16 | 165 | 3.2 | 19.3 | 0.00 | 0.00 | 0.00 | 81 | 1008.4 |
| 20260506203003 | 15 | 240 | 3.2 | 17.7 | 0.00 | 0.00 | 0.00 | 82 | 1008.7 |
| 20260506201505 | 15 | 185 | 3.2 | 9.7 | 0.00 | 0.00 | 0.00 | 82 | 1008.8 |
| 20260506200009 | 15 | 96 | 4.8 | 12.9 | 0.00 | 0.00 | 0.00 | 81 | 1009.2 |
| 20260506194514 | 16 | 141 | 1.6 | 12.9 | 0.00 | 0.00 | 0.00 | 81 | 1009.1 |
| 20260506193017 | 16 | 191 | 4.8 | 11.3 | 0.00 | 0.00 | 0.00 | 80 | 1009.3 |
| 20260506191524 | 16 | 216 | 1.6 | 12.9 | 0.00 | 0.00 | 0.00 | 79 | 1009.3 |
| 20260506190007 | 16 | 219 | 3.2 | 12.9 | 0.00 | 0.00 | 0.00 | 79 | 1009.2 |
| 20260506184513 | 16 | 238 | 4.8 | 11.3 | 0.00 | 0.00 | 0.00 | 80 | 1009.7 |
| 20260506183018 | 16 | 212 | 3.2 | 16.1 | 0.00 | 0.00 | 0.00 | 79 | 1009.9 |
| 20260506181522 | 17 | 135 | 6.4 | 22.5 | 0.00 | 0.00 | 0.00 | 77 | 1010.2 |
| 20260506180026 | 17 | 278 | 6.4 | 30.6 | 0.00 | 0.00 | 0.00 | 75 | 1010.3 |
| 20260506174509 | 18 | 108 | 3.2 | 17.7 | 0.00 | 0.00 | 0.00 | 76 | 1010.6 |
| 20260506173012 | 17 | 122 | 4.8 | 17.7 | 0.00 | 0.00 | 0.00 | 78 | 1010.4 |
| 20260506171519 | 16 | 227 | 6.4 | 19.3 | 0.00 | 0.00 | 0.00 | 79 | 1010.7 |
| 20260506170023 | 16 | 229 | 6.4 | 19.3 | 0.00 | 0.00 | 0.00 | 78 | 1011.0 |
| 20260506161517 | 17 | 219 | 4.8 | 20.9 | 0.00 | 0.00 | 0.00 | 76 | 1011.5 |
| 20260506160023 | 18 | 252 | 8.0 | 17.7 | 0.00 | 0.00 | 0.00 | 75 | 1011.7 |
| 20260506141529 | 17 | 116 | 4.8 | 16.1 | 0.00 | 0.00 | 0.00 | 76 | 1011.7 |
| 20260506133024 | 17 | 130 | 3.2 | 16.1 | 0.00 | 0.00 | 0.00 | 80 | 1012.1 |
| 20260506131524 | 16 | 15 | 4.8 | 19.3 | 0.00 | 0.00 | 0.00 | 79 | 1011.9 |
| 20260506130028 | 16 | 148 | 4.8 | 14.5 | 0.00 | 0.00 | 0.00 | 80 | 1011.7 |
| 20260506124518 | 16 | 218 | 6.4 | 25.7 | 0.00 | 0.00 | 0.00 | 81 | 1011.8 |
| 20260506123023 | 16 | 145 | 4.8 | 19.3 | 0.00 | 0.00 | 0.00 | 81 | 1012.2 |
| 20260506121524 | 16 | 236 | 3.2 | 12.9 | 0.00 | 0.00 | 0.00 | 82 | 1012.2 |
| 20260506120031 | 15 | 162 | 0.0 | 12.9 | 0.00 | 0.00 | 0.00 | 84 | 1012.3 |
| 20260506114503 | 15 | 193 | 1.6 | 9.7 | 0.00 | 0.00 | 0.00 | 86 | 1012.5 |
| 20260506113004 | 14 | 227 | 3.2 | 11.3 | 0.00 | 0.00 | 0.00 | 86 | 1012.3 |
| 20260506111504 | 14 | 186 | 3.2 | 19.3 | 0.00 | 0.00 | 0.00 | 87 | 1012.4 |
| 20260506104506 | 13 | 236 | 1.6 | 11.3 | 0.00 | 0.00 | 0.00 | 89 | 1012.4 |
| 20260506103008 | 13 | 181 | 3.2 | 11.3 | 0.00 | 0.00 | 0.00 | 89 | 1012.2 |
| 20260506101506 | 13 | 158 | 3.2 | 11.3 | 0.00 | 0.00 | 0.00 | 90 | 1012.1 |
| 20260506100005 | 12 | 211 | 3.2 | 20.9 | 0.00 | 0.00 | 0.00 | 90 | 1012.3 |
| 20260506094506 | 12 | 173 | 1.6 | 9.7 | 0.00 | 0.00 | 0.00 | 90 | 1012.2 |
| 20260506093013 | 13 | 188 | 1.6 | 14.5 | 0.00 | 0.00 | 0.00 | 90 | 1012.1 |
| 20260506091508 | 13 | 194 | 3.2 | 14.5 | 0.00 | 0.00 | 0.00 | 90 | 1012.1 |
| 20260506090011 | 13 | 248 | 1.6 | 12.9 | 0.00 | 0.00 | 0.00 | 90 | 1012.2 |
| 20260506083009 | 13 | 125 | 1.6 | 9.7 | 0.00 | 0.00 | 0.00 | 90 | 1012.2 |
| 20260506081512 | 13 | 229 | 3.2 | 11.3 | 0.00 | 0.00 | 0.00 | 90 | 1012.3 |